| time (UTC) | temp F | wind direction | speed knots | gust knots | rain 1hr in | rain 24hr in | rain mn in | humidity % | barometer mb |
| 20260831094403 | 66 | 200 | 10.4 | 0.0 | 0.00 | 0.00 | 0.00 | 88 | 1015.0 |
| 20260831093103 | 66 | 190 | 8.7 | 0.0 | 0.00 | 0.00 | 0.00 | 88 | 1015.0 |
| 20260831091852 | 64 | 180 | 6.1 | 0.0 | 0.00 | 0.00 | 0.00 | 88 | |
| 20260831083103 | 63 | 220 | 4.3 | 0.0 | 0.00 | 0.00 | 0.00 | 93 | 1015.0 |
| 20260831082024 | 63 | 140 | 1.7 | 0.0 | 0.00 | 0.00 | 0.00 | 93 | |
| 20260831080209 | 61 | 100 | 2.6 | 0.0 | 0.00 | 0.00 | 0.00 | 100 | 1014.0 |
| 20260831073903 | 61 | 100 | 4.3 | 0.0 | 0.00 | 0.00 | 0.00 | 100 | 1015.0 |
| 20260831073102 | 61 | 0 | 0.9 | 0.0 | 0.00 | 0.00 | 0.00 | 100 | 1015.0 |
| 20260831072104 | 61 | 0 | 0.9 | 0.0 | 0.00 | 0.00 | 0.00 | 100 | 1015.0 |
| 20260831072040 | 61 | 260 | 6.1 | 0.0 | 0.00 | 0.00 | 0.00 | 93 | |
| 20260831071002 | 61 | 240 | 5.2 | 0.0 | 0.00 | 0.00 | 0.00 | 100 | 1015.0 |
| 20260831065031 | 61 | 280 | 10.4 | 0.0 | 0.00 | 0.00 | 0.00 | 100 | 1015.0 |
| 20260831063703 | 64 | 250 | 19.1 | 30.4 | 0.00 | 0.00 | 0.00 | 82 | 1015.0 |
| 20260831063102 | 66 | 250 | 13.9 | 0.0 | 0.00 | 0.00 | 0.00 | 82 | 1015.0 |
| 20260831061955 | 64 | 60 | 1.7 | 0.0 | 0.00 | 0.00 | 0.00 | 82 | |
| 20260831061702 | 66 | 0 | 1.7 | 0.0 | 0.00 | 0.00 | 0.00 | 77 | 1013.0 |
| 20260831053103 | 64 | 0 | 0.0 | 0.0 | 0.00 | 0.00 | 0.00 | 82 | 1013.0 |
| 20260831052108 | 63 | 200 | 1.7 | 0.0 | 0.00 | 0.00 | 0.00 | 82 | |
| 20260831050103 | 63 | 200 | 1.7 | 0.0 | 0.00 | 0.00 | 0.00 | 82 | 1013.0 |
| 20260831043102 | 63 | 190 | 4.3 | 0.0 | 0.00 | 0.00 | 0.00 | 82 | 1014.0 |
| 20260831042154 | 63 | 190 | 4.3 | 0.0 | 0.00 | 0.00 | 0.00 | 82 | |
| 20260831040103 | 63 | 180 | 4.3 | 0.0 | 0.00 | 0.00 | 0.00 | 82 | 1014.0 |
| 20260831033103 | 63 | 200 | 2.6 | 0.0 | 0.00 | 0.00 | 0.00 | 82 | 1014.0 |
| 20260831031852 | 63 | 190 | 4.3 | 0.0 | 0.00 | 0.00 | 0.00 | 82 | |
| 20260831023102 | 63 | 190 | 2.6 | 0.0 | 0.00 | 0.00 | 0.00 | 88 | 1014.0 |
| 20260831021951 | 64 | 200 | 4.3 | 0.0 | 0.00 | 0.00 | 0.00 | 77 | |
| 20260831020103 | 63 | 200 | 4.3 | 0.0 | 0.00 | 0.00 | 0.00 | 82 | 1014.0 |
| 20260831013102 | 64 | 180 | 2.6 | 0.0 | 0.00 | 0.00 | 0.00 | 77 | 1015.0 |
| 20260831011950 | 64 | 200 | 4.3 | 0.0 | 0.00 | 0.00 | 0.00 | 77 | |
| 20260831003103 | 64 | 190 | 5.2 | 0.0 | 0.00 | 0.00 | 0.00 | 77 | 1015.0 |
| 20260831001852 | 64 | 190 | 6.1 | 0.0 | 0.00 | 0.00 | 0.00 | 77 | |
| 20260831000103 | 66 | 200 | 5.2 | 0.0 | 0.00 | 0.00 | 0.00 | 72 | 1015.0 |
| 20260830233102 | 64 | 210 | 4.3 | 0.0 | 0.00 | 0.00 | 0.00 | 77 | 1015.0 |
| 20260830232052 | 66 | 180 | 4.3 | 0.0 | 0.00 | 0.00 | 0.00 | 72 | |
| 20260830230103 | 66 | 170 | 5.2 | 0.0 | 0.00 | 0.00 | 0.00 | 72 | 1015.0 |
| 20260830223103 | 66 | 180 | 2.6 | 0.0 | 0.00 | 0.00 | 0.00 | 72 | 1015.0 |
| 20260830222053 | 66 | 170 | 4.3 | 0.0 | 0.00 | 0.00 | 0.00 | 72 | |
| 20260830213102 | 66 | 180 | 2.6 | 0.0 | 0.00 | 0.00 | 0.00 | 72 | 1015.0 |
| 20260830211854 | 70 | 210 | 4.3 | 0.0 | 0.00 | 0.00 | 0.00 | 60 | |
| 20260830203102 | 68 | 240 | 5.2 | 0.0 | 0.00 | 0.00 | 0.00 | 68 | 1015.0 |
| 20260830202051 | 72 | 220 | 6.1 | 0.0 | 0.00 | 0.00 | 0.00 | 56 | |
| 20260830200212 | 70 | 220 | 6.1 | 0.0 | 0.00 | 0.00 | 0.00 | 64 | 1015.0 |
| 20260830193103 | 70 | 230 | 5.2 | 0.0 | 0.00 | 0.00 | 0.00 | 64 | 1015.0 |
| 20260830191951 | 75 | 240 | 4.3 | 0.0 | 0.00 | 0.00 | 0.00 | 50 | |
| 20260830190211 | 72 | 230 | 5.2 | 0.0 | 0.00 | 0.00 | 0.00 | 60 | 1015.0 |
| 20260830183103 | 73 | 220 | 5.2 | 0.0 | 0.00 | 0.00 | 0.00 | 53 | 1014.0 |
| 20260830181853 | 75 | 210 | 6.1 | 0.0 | 0.00 | 0.00 | 0.00 | 50 | |
| 20260830173103 | 75 | 210 | 7.0 | 0.0 | 0.00 | 0.00 | 0.00 | 50 | 1014.0 |
| 20260830172051 | 77 | 210 | 7.8 | 0.0 | 0.00 | 0.00 | 0.00 | 44 | |
| 20260830163103 | 77 | 250 | 10.4 | 0.0 | 0.00 | 0.00 | 0.00 | 44 | 1014.0 |
| 20260830161952 | 79 | 250 | 7.8 | 0.0 | 0.00 | 0.00 | 0.00 | 39 | |
| 20260830160104 | 79 | 230 | 8.7 | 0.0 | 0.00 | 0.00 | 0.00 | 44 | 1014.0 |
| 20260830153102 | 79 | 220 | 8.7 | 0.0 | 0.00 | 0.00 | 0.00 | 44 | 1014.0 |
| 20260830152606 | 79 | 220 | 7.8 | 0.0 | 0.00 | 0.00 | 0.00 | 39 | |
| 20260830151851 | 79 | 220 | 7.8 | 0.0 | 0.00 | 0.00 | 0.00 | 39 | |
| 20260830150211 | 79 | 220 | 11.3 | 0.0 | 0.00 | 0.00 | 0.00 | 41 | 1014.0 |
| 20260830143103 | 79 | 220 | 12.2 | 0.0 | 0.00 | 0.00 | 0.00 | 44 | 1014.0 |
| 20260830141951 | 79 | 230 | 12.2 | 0.0 | 0.00 | 0.00 | 0.00 | 41 | |
| 20260830133103 | 79 | 220 | 13.0 | 0.0 | 0.00 | 0.00 | 0.00 | 44 | 1014.0 |
| 20260830131951 | 79 | 210 | 13.9 | 0.0 | 0.00 | 0.00 | 0.00 | 41 | |
| 20260830123102 | 79 | 230 | 12.2 | 0.0 | 0.00 | 0.00 | 0.00 | 50 | 1014.0 |
| 20260830121909 | 77 | 220 | 13.9 | 0.0 | 0.00 | 0.00 | 0.00 | 44 | |
| 20260830120104 | 79 | 230 | 12.2 | 0.0 | 0.00 | 0.00 | 0.00 | 47 | 1014.0 |
| 20260830113103 | 77 | 230 | 14.8 | 0.0 | 0.00 | 0.00 | 0.00 | 47 | 1015.0 |
| 20260830111951 | 79 | 230 | 13.9 | 0.0 | 0.00 | 0.00 | 0.00 | 44 | |
| 20260830103103 | 77 | 210 | 13.9 | 0.0 | 0.00 | 0.00 | 0.00 | 50 | 1015.0 |
| 20260830102153 | 79 | 220 | 13.9 | 0.0 | 0.00 | 0.00 | 0.00 | 47 |